Tracking 30923 objects as of 1-Jul-2025
HD Live streaming from Space Station
objects crossing your sky now

COSMOS 2354

Track COSMOS 2354 now!
10-day predictions
COSMOS 2354 is classified as:


NORAD ID: 25365
Int'l Code: 1998-036C
Perigee: 1,315.6 km
Apogee: 1,876.2 km
Inclination: 82.6 °
Period: 117.9 minutes
Semi major axis: 7966 km
RCS: 0.9905 m2 (medium)
Launch date: June 15, 1998
Source: Commonwealth of Independent States (former USSR) (CIS)
Launch site: PLESETSK MISSILE AND SPACE COMPLEX (PKMTR)

Satellites have a single simultaneous earth-space and space-earth channel.
Your satellite tracking list
STARLINK-4017
Track 1 satellite(s)




NASA's NSSDC Master Catalog

Two Line Element Set (TLE):
1 25365U 98036C   25181.58377904 -.00000005  00000-0 -94100-4 0  9992
2 25365  82.5820 195.2624 0351878 255.8763 235.6580 12.20867664205160
Source of the keplerian elements: AFSPC